TimeMST,TemperatureF,Dew PointF,Humidity,Sea Level PressureIn,VisibilityMPH,Wind Direction,Wind SpeedMPH,Gust SpeedMPH,PrecipitationIn,Events,Conditions,WindDirDegrees,DateUTC
12:53 AM,21.0,12.9,71,30.14,10.0,NNW,8.1,-,N/A,,Clear,340,2013-02-01 07:53:00
1:53 AM,24.1,14.0,65,30.11,10.0,NNW,6.9,-,N/A,,Clear,340,2013-02-01 08:53:00
2:53 AM,16.0,9.0,74,30.12,10.0,East,9.2,-,N/A,,Clear,80,2013-02-01 09:53:00
3:53 AM,18.0,10.9,74,30.11,10.0,Calm,Calm,-,N/A,,Clear,0,2013-02-01 10:53:00
4:53 AM,17.1,10.0,74,30.13,10.0,ENE,3.5,-,N/A,,Clear,70,2013-02-01 11:53:00
5:53 AM,15.1,10.0,80,30.15,10.0,NNE,6.9,-,N/A,,Clear,20,2013-02-01 12:53:00
6:53 AM,15.1,9.0,77,30.16,10.0,ENE,8.1,-,N/A,,Clear,60,2013-02-01 13:53:00
7:53 AM,19.0,12.0,74,30.18,10.0,NE,4.6,-,N/A,,Clear,50,2013-02-01 14:53:00
8:53 AM,28.0,16.0,61,30.14,10.0,NE,6.9,-,N/A,,Clear,50,2013-02-01 15:53:00
9:53 AM,37.9,16.0,41,30.09,10.0,NE,8.1,-,N/A,,Clear,40,2013-02-01 16:53:00
10:53 AM,44.1,12.9,28,30.06,10.0,East,8.1,-,N/A,,Clear,80,2013-02-01 17:53:00
11:53 AM,50.0,8.1,18,30.04,10.0,East,4.6,-,N/A,,Clear,90,2013-02-01 18:53:00
12:53 PM,55.9,3.0,12,29.96,10.0,Calm,Calm,-,N/A,,Clear,0,2013-02-01 19:53:00
1:53 PM,59.0,1.0,10,29.93,10.0,North,11.5,27.6,N/A,,Clear,350,2013-02-01 20:53:00
2:53 PM,59.0,1.0,10,29.96,10.0,Calm,Calm,-,N/A,,Clear,0,2013-02-01 21:53:00
3:53 PM,57.0,1.9,11,29.97,10.0,West,17.3,23.0,N/A,,Clear,260,2013-02-01 22:53:00
4:53 PM,53.1,3.0,13,30.02,10.0,North,11.5,-,N/A,,Clear,10,2013-02-01 23:53:00
5:53 PM,43.0,6.1,22,30.11,10.0,NNW,9.2,-,N/A,,Clear,340,2013-02-02 00:53:00
6:53 PM,39.9,9.0,28,30.15,10.0,North,13.8,-,N/A,,Clear,350,2013-02-02 01:53:00
7:53 PM,37.0,10.9,34,30.18,10.0,NE,8.1,-,N/A,,Clear,40,2013-02-02 02:53:00
8:53 PM,34.0,10.9,38,30.17,10.0,NNE,8.1,17.3,N/A,,Clear,20,2013-02-02 03:53:00
9:53 PM,34.0,10.9,38,30.17,10.0,East,5.8,-,N/A,,Clear,80,2013-02-02 04:53:00
10:53 PM,30.0,10.0,43,30.17,10.0,West,3.5,-,N/A,,Clear,280,2013-02-02 05:53:00
11:53 PM,33.1,10.9,40,30.15,10.0,SE,3.5,-,N/A,,Clear,140,2013-02-02 06:53:00